Location: Courteuil
(49.2000°N, 2.5333°E)
Time: 02:03:40
(UTC+00:00)

Daily predictions for brighter satellites

Satellite Brightness Start Highest point End
(mag) Time Altitude Azimuth Time Altitude Azimuth Time Altitude Azimuth
BREEZE-M DEB (TANK) 4.4 00:01:08 10° WNW 00:05:17 76° SSW 00:21:04 10° ESE
Cosmos 1937 Rocket 4.5 00:04:13 24° SSE 00:06:32 35° ESE 00:11:16 10° NE
Cosmos 923 Rocket 4.4 00:02:02 10° NNW 00:07:17 61° ENE 00:11:00 19° SE
Cosmos 1674 Rocket 4.3 00:05:41 25° SW 00:07:48 44° WNW 00:11:58 10° N
SL-12 R/B(2) 4.3 00:02:26 19° SSW 00:08:43 80° SE 00:18:36 10° NE
Okean 2 Rocket 4.3 00:10:19 10° NNW 00:14:16 31° W 00:16:03 23° SW
Cosmos 1898 Rocket 3.8 00:13:33 29° S 00:15:57 55° ESE 00:21:01 10° NNE
ALOS 2 4.3 00:17:02 18° WSW 00:18:37 22° W 00:22:01 10° NW
GEOS 3 Rocket 4.1 00:15:13 10° NE 00:20:07 43° ESE 00:22:15 28° S
Cosmos 2074 Rocket 4.4 00:21:27 22° SW 00:25:21 54° WNW 00:31:28 10° N
In-Cosmos 22 Rocket 4.4 00:27:54 26° S 00:31:13 71° E 00:37:03 10° NNE
CZ-2D R/B 4.3 00:28:31 10° NE 00:31:27 15° E 00:34:19 10° ESE
Cosmos 1606 3.1 00:30:11 10° N 00:33:42 51° ENE 00:35:20 27° SE
Helios 1A Rocket 3.5 00:32:17 20° SE 00:34:34 46° ENE 00:38:13 10° N
Cosmos 1869 3.5 00:34:05 10° N 00:37:45 57° ENE 00:39:31 27° SSE
SL-16 R/B 2.8 00:35:16 10° NW 00:40:35 41° WSW 00:43:10 26° SSW
Cosmos 2341 Rocket 4.1 00:36:54 24° S 00:40:48 69° E 00:47:00 10° NNE
CZ-2C R/B 4.4 00:36:22 10° ESE 00:40:53 29° ENE 00:45:30 10° N
CENTAUR R/B 2.9 00:35:45 14° WSW 00:40:54 66° NW 00:48:14 10° NE
USA 234 4.4 00:35:01 10° ENE 00:41:12 46° N 00:47:21 10° WNW
Cosmos 2237 Rocket 4.2 00:41:51 10° WNW 00:44:05 12° W 00:46:00 11° WSW
Cosmos 1461 2.6 00:43:01 35° SSW 00:44:33 75° SE 00:48:26 10° NE
Cosmos 1603 4.4 00:40:11 10° NNW 00:45:52 55° NE 00:51:28 10° SE
Cosmos 1680 Rocket 3.4 00:42:50 10° NNW 00:48:04 86° WSW 00:51:38 21° SSE
Cosmos 2228 3.6 00:44:31 10° N 00:48:45 52° ENE 00:51:38 19° SSE
Cosmos 292 Rocket 4.1 00:48:11 24° SW 00:50:57 59° WNW 00:55:45 10° NNE
CRYOSAT 2 4.3 00:46:27 10° N 00:51:23 86° E 00:54:08 27° S
Cosmos 1943 3.2 00:45:51 10° NNW 00:51:31 86° ENE 00:56:23 14° SSE
Cosmos 2227 Rocket 3.4 00:46:33 10° WSW 00:51:41 36° NW 00:56:55 10° NNE
Cosmos 2082 3.7 00:48:25 24° SW 00:51:56 79° WNW 00:57:36 10° NNE
Cosmos 2112 Rocket 4.0 00:46:52 10° NNW 00:52:05 88° ENE 00:55:56 18° SSE
Aureole 1 Rocket 3.6 00:53:40 24° SW 00:55:47 49° WNW 01:00:31 10° NNE
Resurs 1-4 Rocket 3.7 00:54:44 10° NE 00:59:07 26° E 01:03:21 11° SSE
USA 238 DEB 4.2 00:59:38 22° S 01:03:17 43° ESE 01:09:32 10° NE
USA 238 4.2 00:59:40 22° S 01:03:20 42° ESE 01:09:34 10° NE
BREEZE-M DEB (TANK) 2.8 00:59:33 10° WNW 01:04:13 31° SW 01:04:15 31° SW
H-2A R/B 3.7 01:05:24 10° N 01:08:50 24° WNW 01:11:28 14° WSW
BlueWalker 3 2.9 01:05:36 10° WNW 01:09:15 49° N 01:12:54 10° E
Cosmos 1818 4.0 01:04:23 10° NW 01:09:32 42° WSW 01:12:28 23° S
Cosmos 2218 Rocket 4.0 01:07:06 22° S 01:11:20 89° E 01:17:32 10° N
Cosmos 2297 Rocket 4.5 01:08:10 10° W 01:12:05 19° NW 01:16:01 10° N
Cosmos 1544 Rocket 3.6 01:07:48 10° NNW 01:12:14 70° W 01:14:43 25° S
Cosmos 2366 rocket 4.0 01:08:29 22° S 01:12:44 87° W 01:19:00 10° N
Cosmos 372 Rocket 4.4 01:15:43 20° SW 01:19:12 55° WNW 01:24:21 10° NNE
Cosmos 2219 4.3 01:14:58 12° WSW 01:19:44 38° NW 01:24:58 10° NNE
Cosmos 494 Rocket 4.1 01:19:24 10° NNW 01:24:40 79° ENE 01:29:55 10° SSE
Cosmos 921 Rocket 3.1 01:23:27 10° NNW 01:27:42 71° ENE 01:31:45 11° SSE
Cosmos 1975 Rocket 4.2 01:25:49 18° WSW 01:28:19 31° WNW 01:32:17 10° N
Cosmos 2227 4.2 01:26:28 21° SSW 01:30:26 85° ESE 01:36:14 10° NNE
IDEFIX/ARIANE 42P 2.9 01:28:33 10° NNE 01:33:47 63° ESE 01:37:48 17° S
Cosmos 1844 4.2 01:32:48 17° S 01:37:02 52° ESE 01:42:40 10° NE
Cosmos 2263 Rocket 3.2 01:33:26 12° WSW 01:38:13 38° NW 01:43:23 10° NNE
NOSS 3-2 (A) 4.2 01:33:28 10° WSW 01:38:42 45° NW 01:44:59 10° NE
MSX 4.1 01:33:18 10° NNE 01:39:00 62° ESE 01:43:47 15° S
SL-8 Rocket 4.5 01:37:14 18° SW 01:41:38 49° WNW 01:47:41 10° N
NOSS 3-2 (C) 3.5 01:42:25 15° SW 01:46:56 69° NW 01:53:22 10° NE
Cosmos 1606 Rocket 3.7 01:43:01 10° N 01:47:29 78° ENE 01:51:46 11° SSE
Cosmos 1937 Rocket 4.4 01:44:19 14° WSW 01:48:25 39° WNW 01:53:19 10° NNE
Meteor 2-13 Rocket 4.5 01:43:32 10° NNW 01:49:36 70° W 01:55:05 13° S
CZ-2C R/B 3.5 01:48:29 10° NNE 01:53:48 59° E 01:58:24 12° S
Genesis I 4.1 01:51:18 10° NNW 01:54:49 48° NE 01:58:21 10° ESE
Cosmos 1844 Rocket 2.7 01:51:37 17° SSW 01:55:57 80° ESE 02:01:33 10° NNE
Iridium 2 4.5 01:54:18 11° SE 01:56:14 25° E 01:58:18 10° NNE
Cosmos 1536 Rocket 3.9 01:54:56 18° SSW 01:57:59 53° WNW 02:02:19 10° N
GEOS 3 Rocket 4.4 01:53:14 10° NNE 01:58:11 48° NW 02:03:04 10° WSW
SL-16 R/B 3.1 01:52:19 10° SE 01:58:26 60° ENE 02:04:33 10° N
Cosmos 1867 3.6 01:55:11 17° SW 01:59:31 86° NW 02:05:03 10° NE
Cosmos 1726 Rocket 3.6 01:56:54 10° N 02:01:22 81° E 02:05:46 10° SSE
Cosmos 2239 Rocket 4.5 01:55:59 13° S 02:01:28 88° E 02:07:38 10° N
MOZ.5/SAFIR/RUBIN 5/SL-8 4.5 01:59:17 17° SSW 02:02:18 35° W 02:06:33 10° NNW
Cosmos 1727 Rocket 4.2 01:57:39 10° NNW 02:03:52 58° W 02:09:39 12° SSW
H-2A R/B 3.4 02:02:52 10° N 02:06:53 73° WNW 02:10:00 16° SSW
Cosmos 1238 Rocket 3.9 02:08:15 10° N 02:11:16 32° ENE 02:14:02 10° SE
CZ-2D R/B 2.1 02:06:50 10° NNE 02:12:13 89° WNW 02:17:02 12° SSW
USA 81 4.5 02:08:21 10° N 02:13:36 65° E 02:18:50 10° SSE
ALOS 3.3 02:09:56 10° NNE 02:14:18 40° E 02:18:38 10° SSE
ADEOS II 2.3 02:10:45 10° NNE 02:16:01 70° ESE 02:21:14 10° S
Cosmos 1437 Rocket 3.5 02:16:19 15° SW 02:19:05 38° WNW 02:22:37 10° N
CZ-2C R/B 2.9 02:15:44 10° S 02:20:52 50° W 02:26:11 10° NNW
Alouette 2 Rocket 3.6 02:19:24 10° S 02:23:34 64° ESE 02:27:07 10° NNE
USA 234 4.2 02:17:16 10° E 02:23:36 54° NNE 02:29:56 10° WNW
AQUA 4.1 02:20:20 10° NNE 02:25:04 68° ESE 02:29:45 10° S
Cosmos 1607 4.3 02:19:00 10° NW 02:25:05 46° WSW 02:31:01 10° S
ASTEX 1 3.3 02:22:08 10° S 02:27:00 79° W 02:31:54 10° N
FENGYUN 3A 3.7 02:22:51 10° NNE 02:28:17 86° ESE 02:33:41 10° SSW
ATLAS 5 CENTAUR R/B 2.7 02:27:15 10° S 02:29:54 23° ESE 02:32:45 10° ENE
Cosmos 1812 2.5 02:26:45 10° NNW 02:30:19 72° W 02:33:52 10° S
CENTAUR R/B 4.5 02:27:16 10° WNW 02:33:00 31° NNW 02:39:50 10° NE
Resurs 1-4 Rocket 2.5 02:34:04 10° N 02:39:12 52° WNW 02:44:19 10° SW
NPP 4.4 02:35:16 10° N 02:40:19 42° WNW 02:45:20 10° SW
Timation 2 Rocket 4.1 02:37:29 10° SSW 02:44:05 85° ESE 02:50:25 10° NNE
Cosmos 2058 2.9 02:40:36 10° S 02:44:40 87° W 02:48:47 10° N
BlueWalker 3 1.8 02:43:49 10° WNW 02:47:32 63° SSW 02:51:14 10° SE
Cosmos 1892 Rocket 3.9 02:43:40 10° SSW 02:48:00 55° WNW 02:52:23 10° N
SAR-Lupe-4 4.0 02:44:52 10° NNE 02:48:24 60° ESE 02:51:55 10° S
Meteor 2-19 Rocket 4.5 02:42:51 10° NNW 02:49:01 74° W 02:55:09 10° S
Cosmos 2058 Rocket 3.2 02:45:35 10° NNW 02:49:58 61° W 02:54:17 10° S
ATLAS CENTAUR R/B 4.3 02:50:58 10° NNW 02:54:03 22° NE 02:57:13 10° E
USA 238 DEB 4.2 02:47:54 10° WSW 02:54:05 54° NW 03:00:52 10° NE
USA 238 4.2 02:47:56 10° WSW 02:54:07 54° NW 03:00:55 10° NE
Envisat 3.7 02:53:59 10° NNE 02:58:58 54° E 03:03:56 10° S
NOSS 2-2 (C) 3.3 02:57:06 10° SSW 03:00:14 49° SE 03:03:17 10° NE
Cosmos 1544 2.2 02:58:31 10° SSW 03:01:05 65° WNW 03:03:42 10° N
Cosmos 1605 Rocket 4.0 02:57:27 10° S 03:03:38 84° W 03:09:47 10° N
Iridium 4 Rocket 3.4 03:01:49 10° N 03:06:17 60° W 03:11:08 10° SSW
Cosmos 1833 Rocket 2.8 03:01:19 10° NNW 03:07:00 88° ENE 03:12:39 10° SSE
